Tracking 18987 objects as of 25-Feb-2018
HD Live streaming from Space Station
objects crossing your sky now

COSMOS 1564

Track COSMOS 1564 now!
10-day predictions
COSMOS 1564 is classified as:


NORAD ID: 15003
Int'l Code: 1984-052F
Perigee: 1,430.7 km
Apogee: 1,483.0 km
Inclination: 74.0 °
Period: 114.9 minutes
Semi major axis: 7827 km
RCS: 0.6974 m2 (medium)
Launch date: May 28, 1984
Source: Commonwealth of Independent States (former USSR) (CIS)
Launch site: PLESETSK MISSILE AND SPACE COMPLEX (PKMTR)
aabbcc
Your satellite tracking list
Your tracking list is empty




NASA's NSSDC Master Catalog

Two Line Element Set (TLE):
1 15003U 84052F   18055.20359144 -.00000009  00000-0  46075-4 0  9991
2 15003  74.0108 282.1790 0033395 214.2439 277.4471 12.53536162544186
Source of the keplerian elements: AFSPC